[[{"header":{"parameterUnit":"m.s-1","parameterCategory":1,"la1":30.2991,"la2":30.254,"lo1":-89.0895,"lo2":-89.0444,"dy":0.0017,"dx":0.0017,"nx":28,"ny":28,"refTime":"2023-08-08T03:00:00:Z","depth":0,"parameterNumber":2,"parameterNumberName":"U-component_of_WINDS"},"data":[0,0,0,0,0,0,0,0,0,0,0,0,0,0,0,0,0,0,0,0,0,0,0,0,0,0,0,0,0,0,0,0,0,0,0,0,0,0,0,0,0,0,0,0,0,0,0,0,0,0,0,0,0,0,0,0,0,0,2.246,2.246,0,2.2439,2.2439,2.2439,2.2385,2.2383,2.2382,2.2381,2.2358,2.2359,2.2359,0,0,0,0,0,0,0,0,0,0,0,0,0,2.2454,2.2454,2.246,2.246,2.246,2.2439,2.2439,2.2439,2.2385,2.2383,2.2382,2.2381,2.2358,2.2359,2.2359,0,0,0,0,0,0,0,0,0,0,0,0,0,2.2447,2.2454,2.246,2.243,2.2427,2.244,2.2439,2.2439,2.2385,2.2383,2.2382,2.238,2.2358,2.2359,2.2359,2.2398,0,0,2.2362,2.2362,0,0,0,0,0,0,0,0,2.2448,2.2447,2.2435,2.2432,2.2429,2.2413,2.2428,2.2425,2.2386,2.2401,2.2381,2.2379,2.2378,2.2377,2.2377,2.2397,2.2396,2.2362,2.2362,2.2362,2.2363,0,0,0,0,0,0,0,2.2448,2.2448,2.2452,2.2435,2.2431,2.2418,2.2415,2.2428,2.2399,2.24,2.2396,2.2394,2.2376,2.2376,2.2376,2.2396,2.2362,2.2362,2.2363,2.2363,2.245,2.2452,0,0,0,0,0,0,2.2453,2.2449,2.2453,2.2451,2.2434,2.242,2.2417,2.242,2.2399,2.2394,2.2396,2.2392,2.2376,2.2375,2.2375,2.2419,2.2362,2.2363,2.2363,2.2448,2.245,2.2452,0,0,0,0,0,0,2.2453,2.2454,2.2453,2.2449,2.2448,2.2422,2.2426,2.242,2.242,2.2396,2.2391,2.2401,2.2374,2.2374,2.2393,2.2418,2.2363,2.2364,2.2446,2.2449,2.2451,2.2509,0,0,0,0,0,0,2.2453,2.2454,2.2468,2.245,2.2448,2.2472,2.2427,2.2421,2.2422,2.2417,2.24,2.2395,2.2373,2.2393,2.2394,2.2418,2.2364,2.2443,2.2447,2.245,2.2505,2.2513,2.2521,0,0,0,0,0,2.2453,2.2484,2.2469,2.247,2.2465,2.2474,2.2473,2.2447,2.2424,2.2438,2.2423,2.2396,2.2416,2.2395,2.2396,2.2421,2.2442,2.2446,2.245,2.2501,2.2512,2.2521,0,0,0,0,0,0,2.2504,2.2481,2.2464,2.249,2.2485,2.2464,2.2481,2.2459,2.2459,2.2454,2.2422,2.2419,2.2443,2.2434,2.2412,2.2458,2.2424,2.2429,2.2463,2.2473,2.2481,2.2481,2.2365,0,0,0,0,0,2.2519,2.2528,2.2507,2.2533,2.2531,2.2507,2.251,2.2491,2.2483,2.248,2.2466,2.246,2.2465,2.2469,2.2472,2.2504,2.25,2.2522,2.253,2.2537,2.254,2.2558,2.2568,2.2466,2.2466,2.2466,0,0,2.2549,2.2537,2.2545,2.2543,2.2536,2.2546,2.2505,2.2517,2.2524,2.2482,2.2499,2.249,2.2481,2.2508,2.2519,2.2501,2.2568,2.2542,2.2548,2.2548,2.2564,2.2573,2.2582,2.2469,2.2469,2.2468,0,0,2.2608,2.26,2.2621,2.2616,2.2608,2.2592,2.2598,2.2582,2.2574,2.2592,2.2561,2.257,2.2579,2.2574,2.2573,2.2635,2.261,2.2638,2.2678,2.2696,2.2704,2.2711,2.2733,2.2741,2.2642,2.2642,2.2642,0,2.2645,2.2659,2.2634,2.2649,2.265,2.2614,2.2636,2.2632,2.2625,2.2626,2.2607,2.2619,2.261,2.2636,2.2652,2.2652,2.2657,2.2638,2.2705,2.2712,2.2718,2.2739,2.2747,2.2645,2.2645,2.2645,2.2644,0,2.2706,2.2717,2.2735,2.273,2.2733,2.2751,2.2729,2.2736,2.2718,2.2705,2.2725,2.2715,2.2716,2.2721,2.2703,2.2745,2.2734,2.2711,2.2676,2.2731,2.275,2.2758,2.265,2.2649,2.2648,2.2647,0,0,2.2792,2.2777,2.2784,2.2782,2.2772,2.278,2.2798,2.28,2.2806,2.2804,2.2818,2.2828,2.2808,2.2806,2.2788,2.2804,2.2855,2.2779,2.2778,2.2793,2.2901,2.2917,2.2927,2.284,2.2841,2.2842,2.2901,0,2.2847,2.2876,2.2856,2.2888,2.2898,2.2867,2.2883,2.2879,2.2868,2.2876,2.2864,2.2872,2.2844,2.2844,2.2858,2.2846,2.2876,2.2842,2.2852,2.2852,2.2853,2.2936,2.2953,2.3009,2.2909,2.291,2.2911,0,2.2914,2.2916,2.295,2.294,2.2944,2.2958,2.296,2.2968,2.2963,2.2955,2.2956,2.2935,2.2952,2.292,2.2944,2.2921,2.2925,2.292,2.2922,2.2919,2.2883,2.2935,2.3026,2.3034,2.2922,2.2921,2.2921,0,2.2973,2.2984,2.3006,2.3006,2.2996,2.3007,2.3003,2.2997,2.3001,2.3003,2.3005,2.301,2.3011,2.3015,2.2997,2.2975,2.3023,2.2989,2.3016,2.3016,2.3025,2.3024,2.3116,2.3031,2.3031,2.3031,2.303,0,2.3034,2.3056,2.3033,2.3046,2.307,2.3048,2.3073,2.3066,2.3062,2.3073,2.3048,2.3059,2.3035,2.3044,2.303,2.3052,2.3054,2.3047,2.3042,2.3048,2.3049,2.3048,2.3043,2.3033,2.3032,2.3032,2.3031,0,2.3102,2.3088,2.311,2.31,2.3098,2.3116,2.3107,2.3119,2.3109,2.3125,2.3127,2.3111,2.3121,2.3104,2.3111,2.3102,2.3132,2.3123,2.3134,2.313,2.3158,2.3155,2.325,2.3262,2.3171,2.3172,2.3173,0,2.3141,2.3157,2.315,2.3157,2.3155,2.3166,2.3171,2.3151,2.3157,2.3156,2.3168,2.3177,2.3182,2.32,2.3189,2.3195,2.3185,2.3218,2.3185,2.3191,2.3184,2.3182,2.3184,2.3224,2.3225,2.3226,2.3226,0,2.3212,2.3205,2.3213,2.322,2.3226,2.323,2.3231,2.3239,2.3218,2.3227,2.3237,2.3242,2.3252,2.326,2.3265,2.3261,2.324,2.3238,2.3244,2.3248,2.3253,2.325,2.315,2.3235,2.3234,2.3233,2.3233,2.3232,2.3266,2.3279,2.3277,2.3288,2.3288,2.3291,2.3303,2.3295,2.3304,2.3311,2.33,2.3314,2.3312,2.3316,2.3315,2.3326,2.3311,2.3321,2.3323,2.3325,2.3329,2.3255,2.3327,2.3327,2.3327,2.3327,2.3326,0,2.3334,2.3333,2.3343,2.3347,2.3356,2.3339,2.3341,2.3349,2.3362,2.3363,2.337,2.3384,2.3393,2.3385,2.3392,2.3403,2.3394,2.3406,2.3403,2.3403,2.3342,2.3335,2.3413,2.3413,2.3413,2.3413,2.3413,2.3413,2.3371,2.3393,2.3387,2.341,2.3408,2.3423,2.3426,2.3429,2.343,2.3446,2.3455,2.345,2.3447,2.3455,2.3464,2.3461,2.3464,2.3479,2.3473,2.3415,2.3407,2.3399,2.3392,2.3481,2.3481,2.3533,2.3533,2.3534]},{"header":{"parameterUnit":"m.s-1","parameterCategory":1,"la1":30.2991,"la2":30.254,"lo1":-89.0895,"lo2":-89.0444,"dy":0.0017,"dx":0.0017,"nx":28,"ny":28,"refTime":"2023-08-08T03:00:00:Z","depth":0,"parameterNumber":3,"parameterNumberName":"V-component_of_WINDS"},"data":[0,0,0,0,0,0,0,0,0,0,0,0,0,0,0,0,0,0,0,0,0,0,0,0,0,0,0,0,0,0,0,0,0,0,0,0,0,0,0,0,0,0,0,0,0,0,0,0,0,0,0,0,0,0,0,0,0,0,3.4701,3.4702,0,3.4872,3.4874,3.4876,3.4912,3.4911,3.4909,3.4908,3.5084,3.5089,3.5095,0,0,0,0,0,0,0,0,0,0,0,0,0,3.4403,3.4408,3.47,3.4702,3.4705,3.4872,3.4874,3.4877,3.4912,3.4911,3.4909,3.4907,3.5082,3.5089,3.5096,0,0,0,0,0,0,0,0,0,0,0,0,0,3.4549,3.441,3.47,3.4743,3.4748,3.4871,3.4874,3.4877,3.4912,3.491,3.4909,3.4907,3.5079,3.5088,3.5097,3.519,0,0,3.5124,3.5127,0,0,0,0,0,0,0,0,3.454,3.456,3.4734,3.474,3.4746,3.4869,3.4834,3.4982,3.4913,3.485,3.4908,3.4906,3.5014,3.5028,3.5064,3.5198,3.5205,3.5124,3.513,3.5134,3.5136,0,0,0,0,0,0,0,3.453,3.4553,3.4768,3.4737,3.4744,3.4753,3.4771,3.4862,3.4941,3.4855,3.4858,3.4878,3.5017,3.5056,3.5069,3.5208,3.5124,3.5132,3.5137,3.5141,3.5426,3.5428,0,0,0,0,0,0,3.4513,3.4544,3.4763,3.4773,3.4636,3.476,3.4781,3.4831,3.494,3.4954,3.488,3.4879,3.5042,3.5058,3.5075,3.519,3.5133,3.5142,3.5147,3.5423,3.5426,3.5429,0,0,0,0,0,0,3.4506,3.4532,3.4756,3.466,3.4689,3.4767,3.4824,3.4836,3.4875,3.4958,3.4972,3.4905,3.5041,3.5062,3.5161,3.5197,3.5146,3.5154,3.5421,3.5424,3.5427,3.5422,0,0,0,0,0,0,3.4497,3.4529,3.4566,3.466,3.4694,3.4839,3.4826,3.484,3.489,3.4891,3.4986,3.5,3.5041,3.5147,3.5169,3.5208,3.5161,3.5418,3.5422,3.5426,3.5419,3.5425,3.543,0,0,0,0,0,3.4487,3.4557,3.4567,3.4594,3.4741,3.4841,3.486,3.4906,3.4893,3.493,3.4983,3.4997,3.5189,3.5157,3.5182,3.5224,3.5416,3.5421,3.5426,3.5417,3.5424,3.5429,0,0,0,0,0,0,3.4465,3.4571,3.4583,3.4686,3.4754,3.4847,3.4895,3.4912,3.4986,3.4984,3.5038,3.5059,3.5154,3.5199,3.5161,3.5319,3.5302,3.5312,3.5286,3.5293,3.5298,3.5285,3.5168,0,0,0,0,0,3.4473,3.4545,3.4634,3.4716,3.475,3.4816,3.4862,3.4891,3.4964,3.4993,3.5054,3.5124,3.52,3.5249,3.5324,3.5426,3.5447,3.5467,3.5472,3.5476,3.5484,3.5541,3.555,3.5446,3.5446,3.5445,0,0,3.4489,3.4555,3.4598,3.4714,3.477,3.4844,3.4841,3.4919,3.4974,3.5005,3.5102,3.5148,3.523,3.533,3.5377,3.5371,3.5518,3.5483,3.5485,3.5491,3.5547,3.5557,3.5565,3.5449,3.5448,3.5448,0,0,3.4555,3.4613,3.4688,3.4744,3.483,3.4873,3.4891,3.4981,3.5014,3.5111,3.5136,3.5202,3.5333,3.5389,3.5435,3.5523,3.5537,3.5546,3.5572,3.5626,3.5635,3.5642,3.5673,3.5683,3.5554,3.5554,3.5554,0,3.4564,3.4676,3.4724,3.4802,3.4851,3.4883,3.4959,3.5011,3.5116,3.515,3.5141,3.5305,3.5363,3.5476,3.5497,3.5534,3.5555,3.5535,3.563,3.5638,3.5645,3.5675,3.5686,3.5554,3.5554,3.5554,3.5554,0,3.4683,3.476,3.481,3.4911,3.4967,3.5043,3.5102,3.5152,3.5177,3.5221,3.532,3.539,3.5479,3.5508,3.5533,3.5625,3.5618,3.5619,3.5602,3.5655,3.5684,3.5695,3.5554,3.5554,3.5554,3.5554,0,0,3.4741,3.4866,3.4884,3.493,3.5026,3.5086,3.5164,3.5251,3.5293,3.5364,3.543,3.5539,3.5541,3.5593,3.5624,3.5672,3.5735,3.5667,3.567,3.5677,3.584,3.5838,3.5851,3.5746,3.5748,3.575,3.5833,0,3.4818,3.4957,3.5002,3.5118,3.519,3.522,3.5288,3.5354,3.5397,3.5464,3.5512,3.5589,3.5585,3.5616,3.5665,3.5717,3.5769,3.5712,3.5807,3.581,3.5785,3.5866,3.5865,3.594,3.5845,3.5847,3.5848,0,3.4927,3.5,3.5123,3.5209,3.5241,3.5301,3.5384,3.5448,3.5523,3.5551,3.5609,3.5637,3.5718,3.5697,3.5809,3.577,3.5811,3.5843,3.5847,3.5857,3.5832,3.5878,3.5965,3.5976,3.5866,3.5865,3.5864,0,3.4956,3.5085,3.5175,3.5213,3.5316,3.5357,3.5402,3.5476,3.5525,3.5598,3.563,3.5711,3.5755,3.5817,3.5866,3.5846,3.5974,3.5957,3.5999,3.5998,3.6024,3.6022,3.6118,3.6052,3.6052,3.6051,3.6051,0,3.5037,3.5111,3.5189,3.5244,3.5327,3.5378,3.5459,3.5506,3.5571,3.5635,3.5667,3.5727,3.5788,3.5855,3.5894,3.5981,3.6001,3.6025,3.6034,3.6022,3.6019,3.605,3.6046,3.6054,3.6054,3.6053,3.6053,0,3.5083,3.5139,3.5238,3.5328,3.5352,3.5409,3.5486,3.554,3.5585,3.5666,3.5688,3.5758,3.584,3.5894,3.5998,3.6024,3.6118,3.6127,3.6093,3.6097,3.6136,3.6131,3.6255,3.6274,3.6195,3.6196,3.6196,0,3.5131,3.5189,3.5284,3.5329,3.5374,3.5447,3.5498,3.555,3.5601,3.5691,3.5734,3.5818,3.5887,3.6016,3.6075,3.6155,3.6165,3.6203,3.6178,3.6163,3.6165,3.6161,3.6167,3.6207,3.6208,3.6208,3.6209,0,3.521,3.5234,3.5306,3.5387,3.5446,3.5512,3.5579,3.5614,3.5678,3.5734,3.5817,3.5871,3.5977,3.6059,3.6144,3.619,3.621,3.6216,3.623,3.6218,3.6196,3.6208,3.6103,3.6213,3.6213,3.6212,3.6212,3.6212,3.5258,3.531,3.5385,3.5464,3.5519,3.5581,3.5636,3.5688,3.5758,3.5849,3.5875,3.5962,3.6035,3.6152,3.6199,3.6267,3.6263,3.6284,3.6289,3.6293,3.6292,3.6185,3.6283,3.6283,3.6283,3.6283,3.6283,0,3.5338,3.5388,3.5459,3.5551,3.5613,3.5626,3.57,3.5751,3.5827,3.5894,3.5961,3.6057,3.6136,3.6203,3.6285,3.6327,3.6338,3.6346,3.6344,3.6354,3.6291,3.6271,3.6336,3.6336,3.6336,3.6336,3.6336,3.6336,3.5387,3.5475,3.5509,3.5625,3.5674,3.5759,3.5801,3.5857,3.5911,3.6016,3.6082,3.6125,3.6192,3.6279,3.6352,3.637,3.6398,3.6405,3.6424,3.6364,3.6358,3.6352,3.6333,3.6411,3.6411,3.6481,3.6481,3.6482]}]]